Year,Month,Day,Hour,Minute,Value (Times are PST for temperature in C)
2010,06,23,00,00,15.00
2010,06,23,00,01,15.00
2010,06,23,00,02,15.00
2010,06,23,00,03,15.00
2010,06,23,00,04,15.00
2010,06,23,00,05,15.00
2010,06,23,00,06,15.00
2010,06,23,00,07,15.00
2010,06,23,00,08,14.90
2010,06,23,00,09,14.90
2010,06,23,00,10,14.80
2010,06,23,00,11,14.80
2010,06,23,00,12,14.80
2010,06,23,00,13,14.80
2010,06,23,00,14,14.70
2010,06,23,00,15,14.70
2010,06,23,00,16,14.70
2010,06,23,00,17,14.70
2010,06,23,00,18,14.70
2010,06,23,00,19,14.60
2010,06,23,00,20,14.60
2010,06,23,00,21,14.60
2010,06,23,00,22,14.60
2010,06,23,00,23,14.60
2010,06,23,00,24,14.50
2010,06,23,00,25,14.50
2010,06,23,00,26,14.50
2010,06,23,00,27,14.40
2010,06,23,00,28,14.40
2010,06,23,00,29,14.40
2010,06,23,00,30,14.40
2010,06,23,00,31,14.30
2010,06,23,00,32,14.30
2010,06,23,00,33,14.30
2010,06,23,00,34,14.30
2010,06,23,00,35,14.30
2010,06,23,00,36,14.30
2010,06,23,00,37,14.30
2010,06,23,00,38,14.20
2010,06,23,00,39,14.20
2010,06,23,00,40,14.20
2010,06,23,00,41,14.20
2010,06,23,00,42,14.20
2010,06,23,00,43,14.20
2010,06,23,00,44,14.10
2010,06,23,00,45,14.10
2010,06,23,00,46,14.10
2010,06,23,00,47,14.10
2010,06,23,00,48,14.10
2010,06,23,00,49,14.10
2010,06,23,00,50,14.10
2010,06,23,00,51,14.10
2010,06,23,00,52,14.10
2010,06,23,00,53,14.10
2010,06,23,00,54,14.10
2010,06,23,00,55,14.10
2010,06,23,00,56,14.10
2010,06,23,00,57,14.10
2010,06,23,00,58,14.10
2010,06,23,00,59,14.10
2010,06,23,01,00,14.10
2010,06,23,01,01,14.10
2010,06,23,01,02,14.10
2010,06,23,01,03,14.10
2010,06,23,01,04,14.10
2010,06,23,01,05,14.10
2010,06,23,01,06,14.10
2010,06,23,01,07,14.10
2010,06,23,01,08,14.10
2010,06,23,01,09,14.10
2010,06,23,01,10,14.10
2010,06,23,01,11,14.10
2010,06,23,01,12,14.10
2010,06,23,01,13,14.00
2010,06,23,01,14,14.00
2010,06,23,01,15,14.00
2010,06,23,01,16,14.00
2010,06,23,01,17,14.00
2010,06,23,01,18,13.90
2010,06,23,01,19,13.90
2010,06,23,01,20,13.90
2010,06,23,01,21,13.90
2010,06,23,01,22,13.90
2010,06,23,01,23,13.90
2010,06,23,01,24,13.90
2010,06,23,01,25,13.90
2010,06,23,01,26,14.00
2010,06,23,01,27,14.00
2010,06,23,01,28,14.00
2010,06,23,01,29,14.00
2010,06,23,01,30,14.00
2010,06,23,01,31,13.90
2010,06,23,01,32,13.90
2010,06,23,01,33,13.90
2010,06,23,01,34,13.90
2010,06,23,01,35,13.90
2010,06,23,01,36,13.90
2010,06,23,01,37,14.00
2010,06,23,01,38,14.00
2010,06,23,01,39,14.00
2010,06,23,01,40,14.00
2010,06,23,01,41,14.00
2010,06,23,01,42,14.10
2010,06,23,01,43,14.10
2010,06,23,01,44,14.10
2010,06,23,01,45,14.10
2010,06,23,01,46,14.10
2010,06,23,01,47,14.10
2010,06,23,01,48,14.10
2010,06,23,01,49,14.20
2010,06,23,01,50,14.20
2010,06,23,01,51,14.20
2010,06,23,01,52,14.20
2010,06,23,01,53,14.20
2010,06,23,01,54,14.30
2010,06,23,01,55,14.30
2010,06,23,01,56,14.30
2010,06,23,01,57,14.30
2010,06,23,01,58,14.30
2010,06,23,01,59,14.30
2010,06,23,02,00,14.30
2010,06,23,02,01,14.30
2010,06,23,02,02,14.30
2010,06,23,02,03,14.30
2010,06,23,02,04,14.20
2010,06,23,02,05,14.20
2010,06,23,02,06,14.20
2010,06,23,02,07,14.30
2010,06,23,02,08,14.30
2010,06,23,02,09,14.30
2010,06,23,02,10,14.30
2010,06,23,02,11,14.30
2010,06,23,02,12,14.30
2010,06,23,02,13,14.30
2010,06,23,02,14,14.30
2010,06,23,02,15,14.30
2010,06,23,02,16,14.30
2010,06,23,02,17,14.30
2010,06,23,02,18,14.30
2010,06,23,02,19,14.40
2010,06,23,02,20,14.40
2010,06,23,02,21,14.40
2010,06,23,02,22,14.40
2010,06,23,02,23,14.40
2010,06,23,02,24,14.40
2010,06,23,02,25,14.40
2010,06,23,02,26,14.40
2010,06,23,02,27,14.40
2010,06,23,02,28,14.40
2010,06,23,02,29,14.40
2010,06,23,02,30,14.40
2010,06,23,02,31,14.40
2010,06,23,02,32,14.40
2010,06,23,02,33,14.40
2010,06,23,02,34,14.40
2010,06,23,02,35,14.40
2010,06,23,02,36,14.40
2010,06,23,02,37,14.40
2010,06,23,02,38,14.40
2010,06,23,02,39,14.40
2010,06,23,02,40,14.40
2010,06,23,02,41,14.40
2010,06,23,02,42,14.40
2010,06,23,02,43,14.40
2010,06,23,02,44,14.40
2010,06,23,02,45,14.40
2010,06,23,02,46,14.40
2010,06,23,02,47,14.40
2010,06,23,02,48,14.40
2010,06,23,02,49,14.40
2010,06,23,02,50,14.40
2010,06,23,02,51,14.40
2010,06,23,02,52,14.40
2010,06,23,02,53,14.40
2010,06,23,02,54,14.30
2010,06,23,02,55,14.30
2010,06,23,02,56,14.30
2010,06,23,02,57,14.30
2010,06,23,02,58,14.30
2010,06,23,02,59,14.30
2010,06,23,03,00,14.30
2010,06,23,03,01,14.30
2010,06,23,03,02,14.30
2010,06,23,03,03,14.30
2010,06,23,03,04,14.30
2010,06,23,03,05,14.30
2010,06,23,03,06,14.30
2010,06,23,03,07,14.20
2010,06,23,03,08,14.20
2010,06,23,03,09,14.20
2010,06,23,03,10,14.20
2010,06,23,03,11,14.20
2010,06,23,03,12,14.20
2010,06,23,03,13,14.20
2010,06,23,03,14,14.20
2010,06,23,03,15,14.20
2010,06,23,03,16,14.20
2010,06,23,03,17,14.20
2010,06,23,03,18,14.20
2010,06,23,03,19,14.20
2010,06,23,03,20,14.20
2010,06,23,03,21,14.20
2010,06,23,03,22,14.20
2010,06,23,03,23,14.20
2010,06,23,03,24,14.20
2010,06,23,03,25,14.20
2010,06,23,03,26,14.20
2010,06,23,03,27,14.30
2010,06,23,03,28,14.30
2010,06,23,03,29,14.30
2010,06,23,03,30,14.30
2010,06,23,03,34,14.30
2010,06,23,03,35,14.30
2010,06,23,03,36,14.30
2010,06,23,03,37,14.20
2010,06,23,03,38,14.20
2010,06,23,03,39,14.20
2010,06,23,03,40,14.20
2010,06,23,03,41,14.20
2010,06,23,03,42,14.20
2010,06,23,03,43,14.20
2010,06,23,03,44,14.20
2010,06,23,03,45,14.20
2010,06,23,03,46,14.20
2010,06,23,03,47,14.20
2010,06,23,03,48,14.20
2010,06,23,03,49,14.20
2010,06,23,03,50,14.20
2010,06,23,03,51,14.20
2010,06,23,03,52,14.20
2010,06,23,03,53,14.20
2010,06,23,03,54,14.20
2010,06,23,03,55,14.20
2010,06,23,03,56,14.20
2010,06,23,03,57,14.20
2010,06,23,03,58,14.20
2010,06,23,03,59,14.20
2010,06,23,04,00,14.20
2010,06,23,04,01,14.20
2010,06,23,04,02,14.20
2010,06,23,04,03,14.20
2010,06,23,04,04,14.20
2010,06,23,04,05,14.20
2010,06,23,04,06,14.20
2010,06,23,04,07,14.20
2010,06,23,04,08,14.30
2010,06,23,04,09,14.30
2010,06,23,04,10,14.20
2010,06,23,04,11,14.20
2010,06,23,04,12,14.20
2010,06,23,04,13,14.20
2010,06,23,04,14,14.20
2010,06,23,04,15,14.20
2010,06,23,04,16,14.20
2010,06,23,04,17,14.20
2010,06,23,04,18,14.20
2010,06,23,04,19,14.10
2010,06,23,04,20,14.10
2010,06,23,04,21,14.10
2010,06,23,04,22,14.10
2010,06,23,04,23,14.10
2010,06,23,04,24,14.10
2010,06,23,04,25,14.10
2010,06,23,04,26,14.10
2010,06,23,04,27,14.10
2010,06,23,04,28,14.10
2010,06,23,04,29,14.10
2010,06,23,04,30,14.10
2010,06,23,04,31,14.10
2010,06,23,04,32,14.20
2010,06,23,04,33,14.10
2010,06,23,04,34,14.10
2010,06,23,04,35,14.20
2010,06,23,04,36,14.20
2010,06,23,04,37,14.20
2010,06,23,04,38,14.20
2010,06,23,04,39,14.10
2010,06,23,04,40,14.10
2010,06,23,04,41,14.10
2010,06,23,04,42,14.10
2010,06,23,04,43,14.10
2010,06,23,04,44,14.10
2010,06,23,04,45,14.10
2010,06,23,04,46,14.10
2010,06,23,04,47,14.10
2010,06,23,04,48,14.10
2010,06,23,04,49,14.10
2010,06,23,04,50,14.10
2010,06,23,04,51,14.10
2010,06,23,04,52,14.10
2010,06,23,04,53,14.10
2010,06,23,04,54,14.10
2010,06,23,04,55,14.10
2010,06,23,04,56,14.10
2010,06,23,04,57,14.20
2010,06,23,04,58,14.10
2010,06,23,04,59,14.10
2010,06,23,05,00,14.10
2010,06,23,05,01,14.10
2010,06,23,05,02,14.10
2010,06,23,05,03,14.10
2010,06,23,05,04,14.10
2010,06,23,05,05,14.10
2010,06,23,05,06,14.10
2010,06,23,05,07,14.10
2010,06,23,05,08,14.10
2010,06,23,05,09,14.10
2010,06,23,05,10,14.10
2010,06,23,05,11,14.10
2010,06,23,05,12,14.10
2010,06,23,05,13,14.10
2010,06,23,05,14,14.10
2010,06,23,05,15,14.10
2010,06,23,05,16,14.10
2010,06,23,05,17,14.10
2010,06,23,05,18,14.10
2010,06,23,05,19,14.10
2010,06,23,05,20,14.10
2010,06,23,05,21,14.10
2010,06,23,05,22,14.10
2010,06,23,05,23,14.10
2010,06,23,05,24,14.10
2010,06,23,05,25,14.10
2010,06,23,05,26,14.10
2010,06,23,05,27,14.10
2010,06,23,05,28,14.10
2010,06,23,05,29,14.10
2010,06,23,05,30,14.10
2010,06,23,05,31,14.10
2010,06,23,05,32,14.10
2010,06,23,05,33,14.10
2010,06,23,05,34,14.10
2010,06,23,05,35,14.10
2010,06,23,05,36,14.10
2010,06,23,05,37,14.00
2010,06,23,05,38,14.00
2010,06,23,05,39,14.00
2010,06,23,05,40,14.00
2010,06,23,05,41,13.90
2010,06,23,05,42,13.90
2010,06,23,05,43,13.90
2010,06,23,05,44,13.90
2010,06,23,05,45,13.90
2010,06,23,05,46,13.90
2010,06,23,05,47,13.90
2010,06,23,05,48,13.90
2010,06,23,05,49,13.90
2010,06,23,05,50,13.90
2010,06,23,05,51,13.90
2010,06,23,05,52,13.90
2010,06,23,05,53,13.90
2010,06,23,05,54,13.90
2010,06,23,05,55,13.90
2010,06,23,05,56,13.90
2010,06,23,05,57,13.90
2010,06,23,05,58,13.90
2010,06,23,05,59,14.00
2010,06,23,06,00,14.00
2010,06,23,06,01,14.00
2010,06,23,06,02,14.00
2010,06,23,06,03,14.00
2010,06,23,06,04,14.10
2010,06,23,06,05,14.10
2010,06,23,06,06,14.10
2010,06,23,06,07,14.10
2010,06,23,06,08,14.10
2010,06,23,06,09,14.10
2010,06,23,06,10,14.10
2010,06,23,06,11,14.10
2010,06,23,06,12,14.20
2010,06,23,06,13,14.20
2010,06,23,06,14,14.20
2010,06,23,06,15,14.20
2010,06,23,06,16,14.20
2010,06,23,06,17,14.20
2010,06,23,06,18,14.30
2010,06,23,06,19,14.30
2010,06,23,06,20,14.30
2010,06,23,06,21,14.30
2010,06,23,06,22,14.30
2010,06,23,06,23,14.30
2010,06,23,06,24,14.40
2010,06,23,06,25,14.40
2010,06,23,06,26,14.40
2010,06,23,06,27,14.40
2010,06,23,06,28,14.40
2010,06,23,06,29,14.40
2010,06,23,06,30,14.40
2010,06,23,06,31,14.40
2010,06,23,06,32,14.40
2010,06,23,06,33,14.40
2010,06,23,06,34,14.40
2010,06,23,06,35,14.40
2010,06,23,06,36,14.40
2010,06,23,06,37,14.50
2010,06,23,06,38,14.50
2010,06,23,06,39,14.50
2010,06,23,06,40,14.50
2010,06,23,06,41,14.50
2010,06,23,06,42,14.50
2010,06,23,06,43,14.50
2010,06,23,06,44,14.60
2010,06,23,06,45,14.60
2010,06,23,06,46,14.60
2010,06,23,06,47,14.60
2010,06,23,06,48,14.60
2010,06,23,06,49,14.70
2010,06,23,06,50,14.70
2010,06,23,06,51,14.70
2010,06,23,06,52,14.80
2010,06,23,06,53,14.80
2010,06,23,06,54,14.90
2010,06,23,06,55,14.90
2010,06,23,06,56,15.00
2010,06,23,06,57,15.00
2010,06,23,06,58,15.00
2010,06,23,06,59,15.00
2010,06,23,07,00,15.00
2010,06,23,07,01,15.00
2010,06,23,07,02,15.00
2010,06,23,07,03,15.00
2010,06,23,07,04,15.00
2010,06,23,07,05,15.00
2010,06,23,07,06,15.00
2010,06,23,07,07,15.00
2010,06,23,07,08,15.00
2010,06,23,07,09,15.10
2010,06,23,07,10,15.10
2010,06,23,07,11,15.10
2010,06,23,07,12,15.10
2010,06,23,07,13,15.20
2010,06,23,07,14,15.20
2010,06,23,07,15,15.20
2010,06,23,07,16,15.20
2010,06,23,07,17,15.20
2010,06,23,07,18,15.20
2010,06,23,07,19,15.30
2010,06,23,07,20,15.30
2010,06,23,07,21,15.30
2010,06,23,07,22,15.20
2010,06,23,07,23,15.20
2010,06,23,07,24,15.20
2010,06,23,07,25,15.30
2010,06,23,07,26,15.20
2010,06,23,07,27,15.20
2010,06,23,07,28,15.30
2010,06,23,07,29,15.30
2010,06,23,07,30,15.30
2010,06,23,07,31,15.30
2010,06,23,07,32,15.40
2010,06,23,07,33,15.50
2010,06,23,07,34,15.50
2010,06,23,07,35,15.60
2010,06,23,07,36,15.60
2010,06,23,07,37,15.70
2010,06,23,07,38,15.70
2010,06,23,07,39,15.70
2010,06,23,07,40,15.70
2010,06,23,07,41,15.80
2010,06,23,07,42,15.80
2010,06,23,07,43,15.70
2010,06,23,07,44,15.70
2010,06,23,07,45,15.70
2010,06,23,07,46,15.70
2010,06,23,07,47,15.70
2010,06,23,07,48,15.70
2010,06,23,07,49,15.70
2010,06,23,07,50,15.70
2010,06,23,07,51,15.70
2010,06,23,07,52,15.70
2010,06,23,07,53,15.70
2010,06,23,07,54,15.70
2010,06,23,07,55,15.70
2010,06,23,07,56,15.80
2010,06,23,07,57,15.80
2010,06,23,07,58,15.90
2010,06,23,07,59,16.00
2010,06,23,08,00,16.00
2010,06,23,08,01,16.10
2010,06,23,08,02,16.10
2010,06,23,08,03,16.10
2010,06,23,08,04,16.20
2010,06,23,08,05,16.20
2010,06,23,08,06,16.30
2010,06,23,08,07,16.30
2010,06,23,08,08,16.40
2010,06,23,08,09,16.40
2010,06,23,08,10,16.40
2010,06,23,08,11,16.40
2010,06,23,08,12,16.40
2010,06,23,08,13,16.50
2010,06,23,08,14,16.60
2010,06,23,08,15,16.60
2010,06,23,08,16,16.70
2010,06,23,08,17,16.80
2010,06,23,08,18,16.80
2010,06,23,08,19,16.80
2010,06,23,08,20,16.80
2010,06,23,08,21,16.80
2010,06,23,08,22,16.80
2010,06,23,08,23,16.80
2010,06,23,08,24,16.80
2010,06,23,08,25,16.80
2010,06,23,08,26,16.80
2010,06,23,08,27,16.80
2010,06,23,08,28,16.80
2010,06,23,08,29,16.90
2010,06,23,08,30,16.90
2010,06,23,08,31,17.00
2010,06,23,08,32,17.10
2010,06,23,08,33,17.20
2010,06,23,08,34,17.30
2010,06,23,08,35,17.40
2010,06,23,08,36,17.50
2010,06,23,08,37,17.60
2010,06,23,08,38,17.60
2010,06,23,08,39,17.70
2010,06,23,08,40,17.70
2010,06,23,08,41,17.80
2010,06,23,08,42,17.80
2010,06,23,08,43,17.90
2010,06,23,08,44,18.00
2010,06,23,08,45,18.00
2010,06,23,08,46,18.10
2010,06,23,08,47,18.10
2010,06,23,08,48,18.20
2010,06,23,08,49,18.30
2010,06,23,08,50,18.30
2010,06,23,08,51,18.40
2010,06,23,08,52,18.50
2010,06,23,08,53,18.50
2010,06,23,08,54,18.60
2010,06,23,08,55,18.60
2010,06,23,08,56,18.60
2010,06,23,08,57,18.60
2010,06,23,08,58,18.70
2010,06,23,08,59,18.70
2010,06,23,09,00,18.70
2010,06,23,09,01,18.70
2010,06,23,09,02,18.80
2010,06,23,09,03,18.80
2010,06,23,09,04,18.80
2010,06,23,09,05,18.80
2010,06,23,09,06,18.80
2010,06,23,09,07,18.70
2010,06,23,09,08,18.70
2010,06,23,09,09,18.70
2010,06,23,09,10,18.70
2010,06,23,09,11,18.70
2010,06,23,09,12,18.70
2010,06,23,09,13,18.70
2010,06,23,09,14,18.70
2010,06,23,09,15,18.70
2010,06,23,09,16,18.70
2010,06,23,09,17,18.60
2010,06,23,09,18,18.60
2010,06,23,09,19,18.70
2010,06,23,09,20,18.70
2010,06,23,09,21,18.80
2010,06,23,09,22,18.90
2010,06,23,09,23,19.00
2010,06,23,09,24,19.10
2010,06,23,09,25,19.30
2010,06,23,09,26,19.40
2010,06,23,09,27,19.60
2010,06,23,09,28,19.70
2010,06,23,09,29,19.90
2010,06,23,09,30,20.10
2010,06,23,09,31,20.30
2010,06,23,09,32,20.40
2010,06,23,09,33,20.50
2010,06,23,09,34,20.60
2010,06,23,09,35,20.70
2010,06,23,09,36,20.80
2010,06,23,09,37,20.90
2010,06,23,09,38,21.10
2010,06,23,09,39,21.20
2010,06,23,09,40,21.30
2010,06,23,09,41,21.50
2010,06,23,09,42,21.60
2010,06,23,09,43,21.80
2010,06,23,09,44,21.90
2010,06,23,09,45,22.10
2010,06,23,09,46,22.20
2010,06,23,09,47,22.30
2010,06,23,09,48,22.30
2010,06,23,09,49,22.30
2010,06,23,09,50,22.30
2010,06,23,09,51,22.30
2010,06,23,09,52,22.30
2010,06,23,09,53,22.30
2010,06,23,09,54,22.30
2010,06,23,09,55,22.30
2010,06,23,09,56,22.30
2010,06,23,09,57,22.30
2010,06,23,09,58,22.30
2010,06,23,09,59,22.30
2010,06,23,10,00,22.40
2010,06,23,10,01,22.50
2010,06,23,10,02,22.60
2010,06,23,10,03,22.70
2010,06,23,10,04,22.70
2010,06,23,10,05,22.60
2010,06,23,10,06,22.60
2010,06,23,10,07,22.60
2010,06,23,10,08,22.60
2010,06,23,10,09,22.60
2010,06,23,10,10,22.60
2010,06,23,10,11,22.50
2010,06,23,10,12,22.40
2010,06,23,10,13,22.40
2010,06,23,10,14,22.40
2010,06,23,10,15,22.30
2010,06,23,10,16,22.30
2010,06,23,10,17,22.40
2010,06,23,10,18,22.40
2010,06,23,10,19,22.40
2010,06,23,10,20,22.50
2010,06,23,10,21,22.50
2010,06,23,10,22,22.50
2010,06,23,10,23,22.60
2010,06,23,10,24,22.60
2010,06,23,10,25,22.50
2010,06,23,10,26,22.50
2010,06,23,10,27,22.40
2010,06,23,10,28,22.30
2010,06,23,10,29,22.30
2010,06,23,10,30,22.30
2010,06,23,10,31,22.30
2010,06,23,10,32,22.40
2010,06,23,10,33,22.50
2010,06,23,10,34,22.50
2010,06,23,10,35,22.50
2010,06,23,10,36,22.50
2010,06,23,10,37,22.50
2010,06,23,10,38,22.30
2010,06,23,10,39,22.20
2010,06,23,10,40,22.10
2010,06,23,10,41,22.20
2010,06,23,10,42,22.20
2010,06,23,10,43,22.20
2010,06,23,10,44,22.20
2010,06,23,10,45,22.20
2010,06,23,10,46,22.10
2010,06,23,10,47,22.10
2010,06,23,10,48,22.10
2010,06,23,10,49,22.10
2010,06,23,10,50,22.10
2010,06,23,10,51,22.10
2010,06,23,10,52,22.20
2010,06,23,10,53,22.20
2010,06,23,10,54,22.20
2010,06,23,10,55,22.30
2010,06,23,10,56,22.30
2010,06,23,10,57,22.40
2010,06,23,10,58,22.50
2010,06,23,10,59,22.50
2010,06,23,11,00,22.40
2010,06,23,11,01,22.40
2010,06,23,11,02,22.40
2010,06,23,11,03,22.40
2010,06,23,11,04,22.30
2010,06,23,11,05,22.30
2010,06,23,11,06,22.20
2010,06,23,11,07,22.00
2010,06,23,11,08,21.90
2010,06,23,11,09,21.80
2010,06,23,11,10,21.70
2010,06,23,11,11,21.70
2010,06,23,11,12,21.70
2010,06,23,11,13,21.70
2010,06,23,11,14,21.70
2010,06,23,11,15,21.80
2010,06,23,11,16,21.90
2010,06,23,11,17,22.10
2010,06,23,11,18,22.20
2010,06,23,11,19,22.30
2010,06,23,11,20,22.30
2010,06,23,11,21,22.40
2010,06,23,11,22,22.40
2010,06,23,11,23,22.40
2010,06,23,11,24,22.50
2010,06,23,11,25,22.60
2010,06,23,11,26,22.70
2010,06,23,11,27,22.70
2010,06,23,11,28,22.70
2010,06,23,11,29,22.70
2010,06,23,11,30,22.70
2010,06,23,11,31,22.70
2010,06,23,11,32,22.70
2010,06,23,11,33,22.80
2010,06,23,11,34,22.80
2010,06,23,11,35,22.80
2010,06,23,11,36,22.80
2010,06,23,11,37,22.80
2010,06,23,11,38,22.80
2010,06,23,11,39,22.70
2010,06,23,11,40,22.70
2010,06,23,11,41,22.60
2010,06,23,11,42,22.50
2010,06,23,11,43,22.40
2010,06,23,11,44,22.40
2010,06,23,11,45,22.30
2010,06,23,11,46,22.30
2010,06,23,11,47,22.30
2010,06,23,11,48,22.20
2010,06,23,11,49,22.10
2010,06,23,11,50,22.10
2010,06,23,11,51,22.00
2010,06,23,11,52,22.00
2010,06,23,11,53,22.10
2010,06,23,11,54,22.10
2010,06,23,11,55,22.10
2010,06,23,11,56,22.10
2010,06,23,11,57,22.20
2010,06,23,11,58,22.30
2010,06,23,11,59,22.30
2010,06,23,12,00,22.40
2010,06,23,12,01,22.30
2010,06,23,12,02,22.30
2010,06,23,12,03,22.30
2010,06,23,12,04,22.20
2010,06,23,12,05,22.00
2010,06,23,12,06,21.90
2010,06,23,12,07,21.90
2010,06,23,12,08,22.00
2010,06,23,12,09,22.00
2010,06,23,12,10,22.10
2010,06,23,12,11,22.20
2010,06,23,12,12,22.20
2010,06,23,12,13,22.10
2010,06,23,12,14,22.10
2010,06,23,12,15,22.10
2010,06,23,12,16,22.10
2010,06,23,12,17,22.10
2010,06,23,12,18,22.10
2010,06,23,12,19,22.10
2010,06,23,12,20,22.10
2010,06,23,12,21,22.10
2010,06,23,12,22,22.20
2010,06,23,12,23,22.30
2010,06,23,12,24,22.40
2010,06,23,12,25,22.40
2010,06,23,12,26,22.50
2010,06,23,12,27,22.50
2010,06,23,12,28,22.60
2010,06,23,12,29,22.60
2010,06,23,12,30,22.60
2010,06,23,12,31,22.60
2010,06,23,12,32,22.60
2010,06,23,12,33,22.60
2010,06,23,12,34,22.70
2010,06,23,12,35,22.70
2010,06,23,12,36,22.80
2010,06,23,12,37,22.80
2010,06,23,12,38,22.90
2010,06,23,12,39,22.80
2010,06,23,12,40,22.70
2010,06,23,12,41,22.60
2010,06,23,12,42,22.50
2010,06,23,12,43,22.40
2010,06,23,12,44,22.40
2010,06,23,12,45,22.50
2010,06,23,12,46,22.60
2010,06,23,12,47,22.70
2010,06,23,12,48,22.80
2010,06,23,12,49,22.80
2010,06,23,12,50,22.80
2010,06,23,12,51,22.70
2010,06,23,12,52,22.70
2010,06,23,12,53,22.80
2010,06,23,12,54,22.90
2010,06,23,12,55,23.10
2010,06,23,12,56,23.20
2010,06,23,12,57,23.20
2010,06,23,12,58,23.20
2010,06,23,12,59,23.20
2010,06,23,13,00,23.40
2010,06,23,13,01,23.50
2010,06,23,13,02,23.60
2010,06,23,13,03,23.60
2010,06,23,13,04,23.40
2010,06,23,13,05,23.40
2010,06,23,13,06,23.40
2010,06,23,13,07,23.40
2010,06,23,13,08,23.40
2010,06,23,13,09,23.30
2010,06,23,13,10,23.30
2010,06,23,13,11,23.30
2010,06,23,13,12,23.40
2010,06,23,13,13,23.40
2010,06,23,13,14,23.40
2010,06,23,13,15,23.40
2010,06,23,13,16,23.50
2010,06,23,13,17,23.60
2010,06,23,13,18,23.70
2010,06,23,13,19,23.80
2010,06,23,13,20,23.80
2010,06,23,13,21,23.70
2010,06,23,13,22,23.70
2010,06,23,13,23,23.70
2010,06,23,13,24,23.70
2010,06,23,13,25,23.60
2010,06,23,13,26,23.70
2010,06,23,13,27,23.60
2010,06,23,13,28,23.60
2010,06,23,13,29,23.70
2010,06,23,13,30,23.80
2010,06,23,13,31,23.90
2010,06,23,13,32,23.80
2010,06,23,13,33,23.80
2010,06,23,13,34,23.80
2010,06,23,13,35,23.70
2010,06,23,13,36,23.60
2010,06,23,13,37,23.60
2010,06,23,13,38,23.50
2010,06,23,13,39,23.50
2010,06,23,13,40,23.50
2010,06,23,13,41,23.60
2010,06,23,13,42,23.60
2010,06,23,13,43,23.80
2010,06,23,13,44,23.90
2010,06,23,13,45,24.10
2010,06,23,13,46,24.20
2010,06,23,13,47,24.30
2010,06,23,13,48,24.40
2010,06,23,13,49,24.50
2010,06,23,13,50,24.40
2010,06,23,13,51,24.30
2010,06,23,13,52,24.10
2010,06,23,13,53,24.00
2010,06,23,13,54,24.00
2010,06,23,13,55,24.00
2010,06,23,13,56,24.00
2010,06,23,13,57,24.00
2010,06,23,13,58,24.00
2010,06,23,13,59,24.00
2010,06,23,14,00,24.00
2010,06,23,14,01,24.00
2010,06,23,14,02,23.90
2010,06,23,14,03,23.80
2010,06,23,14,04,23.70
2010,06,23,14,05,23.80
2010,06,23,14,06,23.90
2010,06,23,14,07,24.00
2010,06,23,14,08,24.10
2010,06,23,14,09,24.10
2010,06,23,14,10,23.90
2010,06,23,14,11,23.80
2010,06,23,14,12,23.80
2010,06,23,14,13,23.80
2010,06,23,14,14,23.70
2010,06,23,14,15,23.70
2010,06,23,14,16,23.70
2010,06,23,14,17,23.80
2010,06,23,14,18,23.80
2010,06,23,14,19,23.90
2010,06,23,14,20,24.00
2010,06,23,14,21,24.00
2010,06,23,14,22,24.10
2010,06,23,14,23,24.20
2010,06,23,14,24,24.30
2010,06,23,14,25,24.40
2010,06,23,14,26,24.50
2010,06,23,14,27,24.50
2010,06,23,14,28,24.50
2010,06,23,14,29,24.40
2010,06,23,14,30,24.30
2010,06,23,14,31,24.30
2010,06,23,14,32,24.30
2010,06,23,14,33,24.30
2010,06,23,14,34,24.30
2010,06,23,14,35,24.20
2010,06,23,14,36,24.20
2010,06,23,14,37,24.20
2010,06,23,14,38,24.20
2010,06,23,14,39,24.10
2010,06,23,14,40,24.10
2010,06,23,14,41,24.00
2010,06,23,14,42,23.90
2010,06,23,14,43,23.80
2010,06,23,14,44,23.70
2010,06,23,14,45,23.60
2010,06,23,14,46,23.60
2010,06,23,14,47,23.60
2010,06,23,14,48,23.60
2010,06,23,14,49,23.60
2010,06,23,14,50,23.60
2010,06,23,14,51,23.60
2010,06,23,14,52,23.50
2010,06,23,14,53,23.50
2010,06,23,14,54,23.50
2010,06,23,14,55,23.40
2010,06,23,14,56,23.50
2010,06,23,14,57,23.50
2010,06,23,14,58,23.50
2010,06,23,14,59,23.50
2010,06,23,15,00,23.50
2010,06,23,15,01,23.60
2010,06,23,15,02,23.60
2010,06,23,15,03,23.70
2010,06,23,15,04,23.60
2010,06,23,15,05,23.60
2010,06,23,15,06,23.50
2010,06,23,15,07,23.50
2010,06,23,15,08,23.40
2010,06,23,15,09,23.40
2010,06,23,15,10,23.50
2010,06,23,15,11,23.50
2010,06,23,15,12,23.50
2010,06,23,15,13,23.50
2010,06,23,15,14,23.50
2010,06,23,15,15,23.40
2010,06,23,15,16,23.40
2010,06,23,15,17,23.40
2010,06,23,15,18,23.30
2010,06,23,15,19,23.30
2010,06,23,15,20,23.30
2010,06,23,15,21,23.30
2010,06,23,15,22,23.40
2010,06,23,15,23,23.40
2010,06,23,15,24,23.40
2010,06,23,15,25,23.40
2010,06,23,15,26,23.40
2010,06,23,15,27,23.40
2010,06,23,15,28,23.30
2010,06,23,15,29,23.30
2010,06,23,15,30,23.30
2010,06,23,15,31,23.20
2010,06,23,15,32,23.20
2010,06,23,15,33,23.10
2010,06,23,15,34,23.10
2010,06,23,15,35,23.10
2010,06,23,15,36,23.00
2010,06,23,15,37,23.10
2010,06,23,15,38,23.10
2010,06,23,15,39,23.10
2010,06,23,15,40,23.10
2010,06,23,15,41,23.10
2010,06,23,15,42,23.20
2010,06,23,15,43,23.20
2010,06,23,15,44,23.20
2010,06,23,15,45,23.20
2010,06,23,15,46,23.30
2010,06,23,15,47,23.30
2010,06,23,15,48,23.30
2010,06,23,15,49,23.30
2010,06,23,15,50,23.40
2010,06,23,15,51,23.40
2010,06,23,15,52,23.40
2010,06,23,15,53,23.40
2010,06,23,15,54,23.50
2010,06,23,15,55,23.50
2010,06,23,15,56,23.50
2010,06,23,15,57,23.60
2010,06,23,15,58,23.70
2010,06,23,15,59,23.70
2010,06,23,16,00,23.80
2010,06,23,16,01,23.90
2010,06,23,16,02,23.80
2010,06,23,16,03,23.80
2010,06,23,16,04,23.80
2010,06,23,16,05,23.80
2010,06,23,16,06,23.80
2010,06,23,16,07,23.80
2010,06,23,16,08,23.80
2010,06,23,16,09,23.80
2010,06,23,16,10,23.70
2010,06,23,16,11,23.70
2010,06,23,16,12,23.60
2010,06,23,16,13,23.60
2010,06,23,16,14,23.60
2010,06,23,16,15,23.70
2010,06,23,16,16,23.80
2010,06,23,16,17,23.70
2010,06,23,16,18,23.70
2010,06,23,16,19,23.70
2010,06,23,16,20,23.60
2010,06,23,16,21,23.60
2010,06,23,16,22,23.60
2010,06,23,16,23,23.60
2010,06,23,16,24,23.70
2010,06,23,16,25,23.70
2010,06,23,16,26,23.80
2010,06,23,16,27,23.80
2010,06,23,16,28,23.80
2010,06,23,16,29,23.90
2010,06,23,16,30,24.00
2010,06,23,16,31,24.10
2010,06,23,16,32,24.10
2010,06,23,16,33,24.10
2010,06,23,16,34,24.10
2010,06,23,16,35,24.20
2010,06,23,16,36,24.10
2010,06,23,16,37,24.10
2010,06,23,16,38,24.20
2010,06,23,16,39,24.20
2010,06,23,16,40,24.20
2010,06,23,16,41,24.30
2010,06,23,16,42,24.30
2010,06,23,16,43,24.30
2010,06,23,16,44,24.30
2010,06,23,16,45,24.30
2010,06,23,16,46,24.30
2010,06,23,16,47,24.20
2010,06,23,16,48,24.20
2010,06,23,16,49,24.20
2010,06,23,16,50,24.20
2010,06,23,16,51,24.20
2010,06,23,16,52,24.30
2010,06,23,16,53,24.30
2010,06,23,16,54,24.20
2010,06,23,16,55,24.20
2010,06,23,16,56,24.20
2010,06,23,16,57,24.30
2010,06,23,16,58,24.30
2010,06,23,16,59,24.30
2010,06,23,17,00,24.20
2010,06,23,17,01,24.20
2010,06,23,17,02,24.10
2010,06,23,17,03,24.10
2010,06,23,17,04,24.10
2010,06,23,17,05,24.10
2010,06,23,17,06,24.10
2010,06,23,17,07,24.10
2010,06,23,17,08,24.20
2010,06,23,17,09,24.20
2010,06,23,17,10,24.20
2010,06,23,17,11,24.20
2010,06,23,17,12,24.30
2010,06,23,17,13,24.30
2010,06,23,17,14,24.40
2010,06,23,17,15,24.40
2010,06,23,17,16,24.50
2010,06,23,17,17,24.50
2010,06,23,17,18,24.60
2010,06,23,17,19,24.60
2010,06,23,17,20,24.60
2010,06,23,17,21,24.60
2010,06,23,17,22,24.60